Seadream 1 — C6PW8 — position and weather

sailwx.info

Track history (hours):
 
Tides and Currents Weather Stations Pressure Air Temp Water Temp Dewpoint Dewpoint Depression Visibility Wind Speed Wind Dir Waves Ship Positions

Seadream 1

Last reported at 2014-Jul-20 17:31 UTC. Time now 2014-Jul-23 01:45 UTC.
Position N 59°30' E 005°13'.

Length 105 m; draft 4.4 m.

Type: Ship. MMSI: 308908000.

Date/timePositionNaut miles runAvg speedWind from/ knotsBaromVisibWave heightAir tempDewpointWater temp
2014-Jul-20 17:31N 59°30' E 005°13'1513.9
2014-Jul-20 16:27N 59°16' E 005°20'1314.1
2014-Jul-20 15:33N 59°05' E 005°33'8 8.4
2014-Jul-20 14:33N 58°58' E 005°44'0 0.0
2014-Jul-20 13:31N 58°58' E 005°44'0 0.0
2014-Jul-20 12:32N 58°58' E 005°44'0 0.0
2014-Jul-20 11:33N 58°58' E 005°44'0 0.0
2014-Jul-20 10:33N 58°58' E 005°44'0 0.0
2014-Jul-20 09:31N 58°58' E 005°44'0 0.0
2014-Jul-20 08:32N 58°58' E 005°44'0 0.0
2014-Jul-20 07:32N 58°58' E 005°44'0 0.0
2014-Jul-20 06:33N 58°58' E 005°44'2 2.5
2014-Jul-20 05:33N 59°00' E 005°41'9 9.3
2014-Jul-20 04:34N 58°52' E 005°31'1212.5
2014-Jul-20 03:33N 58°40' E 005°27'1111.0
2014-Jul-20 02:33N 58°30' E 005°33'1211.7
2014-Jul-20 01:33N 58°20' E 005°46'75 9.4
2014-Jul-19 17:33N 58°03' E 008°05'1212.3
2014-Jul-19 16:33N 58°11' E 008°24'4 3.8
2014-Jul-19 15:30N 58°15' E 008°23'0 0.0
2014-Jul-19 14:27N 58°15' E 008°23'0 0.0
2014-Jul-19 13:25N 58°15' E 008°23'0 0.0
2014-Jul-19 12:31N 58°15' E 008°23'0 0.0
2014-Jul-19 11:34N 58°15' E 008°23'0 0.0
2014-Jul-19 10:33N 58°15' E 008°23'1 0.6
2014-Jul-19 09:34N 58°14' E 008°24'1010.4
2014-Jul-19 08:33N 58°21' E 008°39'20 9.6
2014-Jul-19 06:30N 58°27' E 009°15'36 8.8
2014-Jul-19 02:22N 58°49' E 010°10'7 8.2
2014-Jul-19 01:32N 58°54' E 010°20'9 9.0
2014-Jul-19 00:33N 58°59' E 010°33'9 9.3
2014-Jul-18 23:33N 59°08' E 010°36'1514.8
2014-Jul-18 22:33N 59°23' E 010°34'1614.7
2014-Jul-18 21:28N 59°39' E 010°37'1312.8
2014-Jul-18 20:25N 59°52' E 010°39'3 3.7
2014-Jul-18 19:30N 59°54' E 010°44'0 0.0
2014-Jul-18 18:32N 59°54' E 010°44'0 0.0
2014-Jul-18 17:26N 59°54' E 010°44'0 0.0
2014-Jul-18 16:27N 59°54' E 010°44'0 0.0
2014-Jul-18 15:25N 59°54' E 010°44'0 0.0
2014-Jul-18 14:22N 59°54' E 010°44'0 0.0
2014-Jul-18 13:32N 59°54' E 010°44'0 0.0
2014-Jul-18 12:23N 59°54' E 010°44'0 0.0
2014-Jul-18 11:20N 59°54' E 010°44'0 0.0
2014-Jul-18 10:33N 59°54' E 010°44'0 0.0
2014-Jul-18 09:33N 59°54' E 010°44'0 0.0
2014-Jul-18 08:31N 59°54' E 010°44'0 0.0
2014-Jul-18 07:29N 59°54' E 010°44'1 1.3
2014-Jul-18 06:33N 59°54' E 010°42'2013.4
2014-Jul-18 05:03N 59°34' E 010°38'814.5
2014-Jul-18 04:30N 59°26' E 010°34'1414.9
2014-Jul-18 03:33N 59°12' E 010°39'1110.9
2014-Jul-18 02:34N 59°01' E 010°35'9 9.4
2014-Jul-18 01:33N 58°52' E 010°35'54 9.0
2014-Jul-17 19:33N 58°01' E 011°10'9 8.9
2014-Jul-17 18:32N 57°54' E 011°21'8 7.1
2014-Jul-17 17:25N 57°53' E 011°35'0 0.0
2014-Jul-17 16:31N 57°53' E 011°35'0 0.0
2014-Jul-17 15:29N 57°53' E 011°35'0 0.0
2014-Jul-17 14:27N 57°53' E 011°35'0 0.0
2014-Jul-17 13:30N 57°53' E 011°35'0 0.0
2014-Jul-17 12:31N 57°53' E 011°35'0 0.0
2014-Jul-17 11:23N 57°53' E 011°35'0 0.0
2014-Jul-17 10:27N 57°53' E 011°35'0 0.0
2014-Jul-17 09:32N 57°53' E 011°35'0 0.0
2014-Jul-17 08:30N 57°53' E 011°35'0 0.0
2014-Jul-17 07:19N 57°53' E 011°35'0 0.0
2014-Jul-17 06:31N 57°53' E 011°35'0 0.1
2014-Jul-17 05:33N 57°53' E 011°35'9 8.9
2014-Jul-17 04:33N 57°46' E 011°24'1010.2
2014-Jul-17 03:33N 57°36' E 011°25'10 9.7
2014-Jul-17 02:34N 57°26' E 011°27'1010.0
2014-Jul-17 01:34N 57°17' E 011°34'1010.3
2014-Jul-17 00:33N 57°07' E 011°40'1110.8
2014-Jul-16 23:34N 56°57' E 011°47'1010.4
2014-Jul-16 22:33N 56°48' E 011°54'1010.3
2014-Jul-16 21:33N 56°38' E 011°59'1010.6
2014-Jul-16 20:33N 56°28' E 012°04'1110.8
2014-Jul-16 19:34N 56°18' E 012°13'1414.3
2014-Jul-16 18:33N 56°08' E 012°31'1313.0
2014-Jul-16 17:33N 55°57' E 012°43'1312.9
2014-Jul-16 16:33N 55°44' E 012°40'3 3.2
2014-Jul-16 15:33N 55°41' E 012°36'0 0.0
2014-Jul-16 14:32N 55°41' E 012°36'0 0.0
2014-Jul-16 13:31N 55°41' E 012°36'0 0.0
2014-Jul-16 12:32N 55°41' E 012°36'0 0.0
2014-Jul-16 11:32N 55°41' E 012°36'0 0.0
2014-Jul-16 10:33N 55°41' E 012°36'0 0.0
2014-Jul-16 09:33N 55°41' E 012°36'0 0.0
2014-Jul-16 08:31N 55°41' E 012°36'0 0.0
2014-Jul-16 07:33N 55°41' E 012°36'0 0.0
2014-Jul-16 06:31N 55°41' E 012°36'1 0.8
2014-Jul-16 05:34N 55°42' E 012°36'5 5.4
2014-Jul-16 04:34N 55°38' E 012°42'1111.1
2014-Jul-16 03:33N 55°27' E 012°42'9 8.8
2014-Jul-16 02:33N 55°18' E 012°44'1010.0
2014-Jul-16 01:34N 55°12' E 012°59'1310.7
2014-Jul-16 00:22N 55°03' E 013°15'911.2
2014-Jul-15 23:34N 54°56' E 013°25'1111.3
2014-Jul-15 22:34N 54°46' E 013°34'1111.0
2014-Jul-15 21:33N 54°37' E 013°44'9 8.9
2014-Jul-15 20:34N 54°28' E 013°39'0 0.4
2014-Jul-15 19:33N 54°28' E 013°39'1 0.8
2014-Jul-15 18:34N 54°28' E 013°40'1 1.3
2014-Jul-15 17:31N 54°29' E 013°40'0 0.5
2014-Jul-15 16:33N 54°29' E 013°39'2 2.0
2014-Jul-15 15:33N 54°31' E 013°38'0 0.0
2014-Jul-15 14:33N 54°31' E 013°38'0 0.0
2014-Jul-15 13:31N 54°31' E 013°38'0 0.0
2014-Jul-15 12:32N 54°31' E 013°38'0 0.0
2014-Jul-15 11:32N 54°31' E 013°38'0 0.0
2014-Jul-15 10:33N 54°31' E 013°38'0 0.0
2014-Jul-15 09:28N 54°31' E 013°38'0 0.0
2014-Jul-15 08:29N 54°31' E 013°38'0 0.0
2014-Jul-15 07:33N 54°31' E 013°38'0 0.0
2014-Jul-15 06:33N 54°31' E 013°38'3 3.1
2014-Jul-15 05:33N 54°28' E 013°41'7 7.2
2014-Jul-15 04:33N 54°28' E 013°54'7 7.4
2014-Jul-15 03:33N 54°30' E 014°06'9 9.5
2014-Jul-15 02:34N 54°33' E 014°22'1110.1
2014-Jul-15 01:31N 54°37' E 014°38'81 3.1
2014-Jul-13 23:09N 54°52' E 016°56'1311.4
2014-Jul-13 22:03N 54°54' E 017°18'714.3
2014-Jul-13 21:33N 54°56' E 017°29'1514.7
2014-Jul-13 20:33N 54°58' E 017°55'1514.8
2014-Jul-13 19:33N 54°59' E 018°20'1514.9
2014-Jul-13 18:34N 54°53' E 018°44'1313.2
2014-Jul-13 17:33N 54°43' E 018°59'1414.2
2014-Jul-13 16:33N 54°31' E 018°47'7 7.3
2014-Jul-13 15:32N 54°24' E 018°39'0 0.0
2014-Jul-13 14:33N 54°24' E 018°39'0 0.0
2014-Jul-13 13:28N 54°24' E 018°39'0 0.0
2014-Jul-13 12:31N 54°24' E 018°39'0 0.0
2014-Jul-13 11:31N 54°24' E 018°39'0 0.0
2014-Jul-13 10:32N 54°24' E 018°39'0 0.0
2014-Jul-13 09:31N 54°24' E 018°39'0 0.0
2014-Jul-13 08:32N 54°24' E 018°39'0 0.0
2014-Jul-13 07:34N 54°24' E 018°39'7 7.3
2014-Jul-13 06:33N 54°31' E 018°46'10 9.9
2014-Jul-13 05:34N 54°39' E 018°55'1010.1
2014-Jul-13 04:33N 54°49' E 018°57'1111.0
2014-Jul-13 03:33N 54°60' E 018°52'1111.2
2014-Jul-13 02:33N 55°10' E 018°45'12714.1
2014-Jul-12 17:31N 57°13' E 017°48'30 3.3
2014-Jul-12 08:28N 57°38' E 018°17'1 1.0
2014-Jul-12 07:26N 57°38' E 018°15'15 7.9
2014-Jul-12 05:33N 57°52' E 018°24'  
Track history (hours):
 
Tides and Currents Weather Stations Pressure Air Temp Water Temp Dewpoint Dewpoint Depression Visibility Wind Speed Wind Dir Waves Ship Positions

Seadream 1

Last reported at 2014-Jul-20 17:31 UTC. Time now 2014-Jul-23 01:45 UTC.
Position N 59°30' E 005°13'.

Length 105 m; draft 4.4 m.

Type: Ship. MMSI: 308908000.

Date/timePositionNaut miles runAvg speedWind from/ knotsBaromVisibWave heightAir tempDewpointWater temp
2014-Jul-20 17:31N 59°30' E 005°13'1513.9
2014-Jul-20 16:27N 59°16' E 005°20'1314.1
2014-Jul-20 15:33N 59°05' E 005°33'8 8.4
2014-Jul-20 14:33N 58°58' E 005°44'0 0.0
2014-Jul-20 13:31N 58°58' E 005°44'0 0.0
2014-Jul-20 12:32N 58°58' E 005°44'0 0.0
2014-Jul-20 11:33N 58°58' E 005°44'0 0.0
2014-Jul-20 10:33N 58°58' E 005°44'0 0.0
2014-Jul-20 09:31N 58°58' E 005°44'0 0.0
2014-Jul-20 08:32N 58°58' E 005°44'0 0.0
2014-Jul-20 07:32N 58°58' E 005°44'0 0.0
2014-Jul-20 06:33N 58°58' E 005°44'2 2.5
2014-Jul-20 05:33N 59°00' E 005°41'9 9.3
2014-Jul-20 04:34N 58°52' E 005°31'1212.5
2014-Jul-20 03:33N 58°40' E 005°27'1111.0
2014-Jul-20 02:33N 58°30' E 005°33'1211.7
2014-Jul-20 01:33N 58°20' E 005°46'75 9.4
2014-Jul-19 17:33N 58°03' E 008°05'1212.3
2014-Jul-19 16:33N 58°11' E 008°24'4 3.8
2014-Jul-19 15:30N 58°15' E 008°23'0 0.0
2014-Jul-19 14:27N 58°15' E 008°23'0 0.0
2014-Jul-19 13:25N 58°15' E 008°23'0 0.0
2014-Jul-19 12:31N 58°15' E 008°23'0 0.0
2014-Jul-19 11:34N 58°15' E 008°23'0 0.0
2014-Jul-19 10:33N 58°15' E 008°23'1 0.6
2014-Jul-19 09:34N 58°14' E 008°24'1010.4
2014-Jul-19 08:33N 58°21' E 008°39'20 9.6
2014-Jul-19 06:30N 58°27' E 009°15'36 8.8
2014-Jul-19 02:22N 58°49' E 010°10'7 8.2
2014-Jul-19 01:32N 58°54' E 010°20'9 9.0
2014-Jul-19 00:33N 58°59' E 010°33'9 9.3
2014-Jul-18 23:33N 59°08' E 010°36'1514.8
2014-Jul-18 22:33N 59°23' E 010°34'1614.7
2014-Jul-18 21:28N 59°39' E 010°37'1312.8
2014-Jul-18 20:25N 59°52' E 010°39'3 3.7
2014-Jul-18 19:30N 59°54' E 010°44'0 0.0
2014-Jul-18 18:32N 59°54' E 010°44'0 0.0
2014-Jul-18 17:26N 59°54' E 010°44'0 0.0
2014-Jul-18 16:27N 59°54' E 010°44'0 0.0
2014-Jul-18 15:25N 59°54' E 010°44'0 0.0
2014-Jul-18 14:22N 59°54' E 010°44'0 0.0
2014-Jul-18 13:32N 59°54' E 010°44'0 0.0
2014-Jul-18 12:23N 59°54' E 010°44'0 0.0
2014-Jul-18 11:20N 59°54' E 010°44'0 0.0
2014-Jul-18 10:33N 59°54' E 010°44'0 0.0
2014-Jul-18 09:33N 59°54' E 010°44'0 0.0
2014-Jul-18 08:31N 59°54' E 010°44'0 0.0
2014-Jul-18 07:29N 59°54' E 010°44'1 1.3
2014-Jul-18 06:33N 59°54' E 010°42'2013.4
2014-Jul-18 05:03N 59°34' E 010°38'814.5
2014-Jul-18 04:30N 59°26' E 010°34'1414.9
2014-Jul-18 03:33N 59°12' E 010°39'1110.9
2014-Jul-18 02:34N 59°01' E 010°35'9 9.4
2014-Jul-18 01:33N 58°52' E 010°35'54 9.0
2014-Jul-17 19:33N 58°01' E 011°10'9 8.9
2014-Jul-17 18:32N 57°54' E 011°21'8 7.1
2014-Jul-17 17:25N 57°53' E 011°35'0 0.0
2014-Jul-17 16:31N 57°53' E 011°35'0 0.0
2014-Jul-17 15:29N 57°53' E 011°35'0 0.0
2014-Jul-17 14:27N 57°53' E 011°35'0 0.0
2014-Jul-17 13:30N 57°53' E 011°35'0 0.0
2014-Jul-17 12:31N 57°53' E 011°35'0 0.0
2014-Jul-17 11:23N 57°53' E 011°35'0 0.0
2014-Jul-17 10:27N 57°53' E 011°35'0 0.0
2014-Jul-17 09:32N 57°53' E 011°35'0 0.0
2014-Jul-17 08:30N 57°53' E 011°35'0 0.0
2014-Jul-17 07:19N 57°53' E 011°35'0 0.0
2014-Jul-17 06:31N 57°53' E 011°35'0 0.1
2014-Jul-17 05:33N 57°53' E 011°35'9 8.9
2014-Jul-17 04:33N 57°46' E 011°24'1010.2
2014-Jul-17 03:33N 57°36' E 011°25'10 9.7
2014-Jul-17 02:34N 57°26' E 011°27'1010.0
2014-Jul-17 01:34N 57°17' E 011°34'1010.3
2014-Jul-17 00:33N 57°07' E 011°40'1110.8
2014-Jul-16 23:34N 56°57' E 011°47'1010.4
2014-Jul-16 22:33N 56°48' E 011°54'1010.3
2014-Jul-16 21:33N 56°38' E 011°59'1010.6
2014-Jul-16 20:33N 56°28' E 012°04'1110.8
2014-Jul-16 19:34N 56°18' E 012°13'1414.3
2014-Jul-16 18:33N 56°08' E 012°31'1313.0
2014-Jul-16 17:33N 55°57' E 012°43'1312.9
2014-Jul-16 16:33N 55°44' E 012°40'3 3.2
2014-Jul-16 15:33N 55°41' E 012°36'0 0.0
2014-Jul-16 14:32N 55°41' E 012°36'0 0.0
2014-Jul-16 13:31N 55°41' E 012°36'0 0.0
2014-Jul-16 12:32N 55°41' E 012°36'0 0.0
2014-Jul-16 11:32N 55°41' E 012°36'0 0.0
2014-Jul-16 10:33N 55°41' E 012°36'0 0.0
2014-Jul-16 09:33N 55°41' E 012°36'0 0.0
2014-Jul-16 08:31N 55°41' E 012°36'0 0.0
2014-Jul-16 07:33N 55°41' E 012°36'0 0.0
2014-Jul-16 06:31N 55°41' E 012°36'1 0.8
2014-Jul-16 05:34N 55°42' E 012°36'5 5.4
2014-Jul-16 04:34N 55°38' E 012°42'1111.1
2014-Jul-16 03:33N 55°27' E 012°42'9 8.8
2014-Jul-16 02:33N 55°18' E 012°44'1010.0
2014-Jul-16 01:34N 55°12' E 012°59'1310.7
2014-Jul-16 00:22N 55°03' E 013°15'911.2
2014-Jul-15 23:34N 54°56' E 013°25'1111.3
2014-Jul-15 22:34N 54°46' E 013°34'1111.0
2014-Jul-15 21:33N 54°37' E 013°44'9 8.9
2014-Jul-15 20:34N 54°28' E 013°39'0 0.4
2014-Jul-15 19:33N 54°28' E 013°39'1 0.8
2014-Jul-15 18:34N 54°28' E 013°40'1 1.3
2014-Jul-15 17:31N 54°29' E 013°40'0 0.5
2014-Jul-15 16:33N 54°29' E 013°39'2 2.0
2014-Jul-15 15:33N 54°31' E 013°38'0 0.0
2014-Jul-15 14:33N 54°31' E 013°38'0 0.0
2014-Jul-15 13:31N 54°31' E 013°38'0 0.0
2014-Jul-15 12:32N 54°31' E 013°38'0 0.0
2014-Jul-15 11:32N 54°31' E 013°38'0 0.0
2014-Jul-15 10:33N 54°31' E 013°38'0 0.0
2014-Jul-15 09:28N 54°31' E 013°38'0 0.0
2014-Jul-15 08:29N 54°31' E 013°38'0 0.0
2014-Jul-15 07:33N 54°31' E 013°38'0 0.0
2014-Jul-15 06:33N 54°31' E 013°38'3 3.1
2014-Jul-15 05:33N 54°28' E 013°41'7 7.2
2014-Jul-15 04:33N 54°28' E 013°54'7 7.4
2014-Jul-15 03:33N 54°30' E 014°06'9 9.5
2014-Jul-15 02:34N 54°33' E 014°22'1110.1
2014-Jul-15 01:31N 54°37' E 014°38'81 3.1
2014-Jul-13 23:09N 54°52' E 016°56'1311.4
2014-Jul-13 22:03N 54°54' E 017°18'714.3
2014-Jul-13 21:33N 54°56' E 017°29'1514.7
2014-Jul-13 20:33N 54°58' E 017°55'1514.8
2014-Jul-13 19:33N 54°59' E 018°20'1514.9
2014-Jul-13 18:34N 54°53' E 018°44'1313.2
2014-Jul-13 17:33N 54°43' E 018°59'1414.2
2014-Jul-13 16:33N 54°31' E 018°47'7 7.3
2014-Jul-13 15:32N 54°24' E 018°39'0 0.0
2014-Jul-13 14:33N 54°24' E 018°39'0 0.0
2014-Jul-13 13:28N 54°24' E 018°39'0 0.0
2014-Jul-13 12:31N 54°24' E 018°39'0 0.0
2014-Jul-13 11:31N 54°24' E 018°39'0 0.0
2014-Jul-13 10:32N 54°24' E 018°39'0 0.0
2014-Jul-13 09:31N 54°24' E 018°39'0 0.0
2014-Jul-13 08:32N 54°24' E 018°39'0 0.0
2014-Jul-13 07:34N 54°24' E 018°39'7 7.3
2014-Jul-13 06:33N 54°31' E 018°46'10 9.9
2014-Jul-13 05:34N 54°39' E 018°55'1010.1
2014-Jul-13 04:33N 54°49' E 018°57'1111.0
2014-Jul-13 03:33N 54°60' E 018°52'1111.2
2014-Jul-13 02:33N 55°10' E 018°45'12714.1
2014-Jul-12 17:31N 57°13' E 017°48'30 3.3
2014-Jul-12 08:28N 57°38' E 018°17'1 1.0
2014-Jul-12 07:26N 57°38' E 018°15'15 7.9
2014-Jul-12 05:33N 57°52' E 018°24'  

Dump ship's entire track history